�������l�o���
Date,Time,MP-1(��Sv/h),MP-2(��Sv/h),MP-3(��Sv/h),MP-4(��Sv/h),MP-5(��Sv/h),MP-6(��Sv/h),MP-7(��Sv/h),����,����(m/s),���J
2018/08/10,00:00,0.306,0.191,0.309,0.296,0.280,0.148,0.093,��쓌,2.3,��
2018/08/10,00:10,0.305,0.191,0.312,0.295,0.281,0.150,0.092,��쓌,3.5,��
2018/08/10,00:20,0.302,0.189,0.310,0.298,0.278,0.150,0.093,��,2.9,��
2018/08/10,00:30,0.302,0.190,0.308,0.296,0.278,0.148,0.093,��쓌,2.1,��
2018/08/10,00:40,0.305,0.193,0.311,0.295,0.282,0.150,0.093,��쓌,2.8,��
2018/08/10,00:50,0.305,0.190,0.311,0.300,0.281,0.149,0.094,��쓌,2.4,��
2018/08/10,01:00,0.302,0.189,0.309,0.298,0.279,0.147,0.094,��쓌,2.4,��
2018/08/10,01:10,0.304,0.190,0.308,0.296,0.278,0.148,0.092,��쓌,2.8,��
2018/08/10,01:20,0.305,0.191,0.313,0.296,0.282,0.150,0.093,��,2.4,��
2018/08/10,01:30,0.303,0.189,0.311,0.300,0.281,0.149,0.093,��,3.0,��
2018/08/10,01:40,0.304,0.191,0.308,0.296,0.278,0.149,0.093,��쐼,3.1,��
2018/08/10,01:50,0.306,0.193,0.312,0.296,0.279,0.150,0.093,��쐼,3.0,��
2018/08/10,02:00,0.304,0.191,0.312,0.298,0.283,0.149,0.094,��쐼,3.7,��
2018/08/10,02:10,0.302,0.190,0.309,0.298,0.281,0.149,0.094,��쐼,4.5,��
2018/08/10,02:20,0.307,0.193,0.309,0.296,0.278,0.149,0.094,��쐼,3.7,��
2018/08/10,02:30,0.306,0.190,0.313,0.298,0.282,0.150,0.093,��쐼,2.6,��
2018/08/10,02:40,0.304,0.189,0.310,0.300,0.281,0.150,0.094,��,1.1,��
2018/08/10,02:50,0.304,0.192,0.310,0.298,0.280,0.149,0.093,��쐼,2.5,��
2018/08/10,03:00,0.306,0.191,0.314,0.296,0.280,0.150,0.093,���쐼,1.1,��
2018/08/10,03:10,0.304,0.190,0.313,0.300,0.282,0.149,0.094,�쐼,1.4,��
2018/08/10,03:20,0.301,0.192,0.308,0.298,0.282,0.149,0.094,�쐼,0.8,��
2018/08/10,03:30,0.307,0.192,0.312,0.296,0.279,0.149,0.093,��쐼,0.9,��
2018/08/10,03:40,0.305,0.190,0.312,0.299,0.283,0.151,0.093,-,CALM,��
2018/08/10,03:50,0.303,0.191,0.308,0.300,0.283,0.150,0.094,��쓌,0.6,��
2018/08/10,04:00,0.304,0.191,0.311,0.296,0.279,0.150,0.094,��,2.2,��
2018/08/10,04:10,0.306,0.191,0.314,0.297,0.280,0.151,0.093,��,1.8,��
2018/08/10,04:20,0.304,0.189,0.311,0.300,0.284,0.151,0.094,��,0.6,��
2018/08/10,04:30,0.303,0.192,0.312,0.298,0.281,0.150,0.094,��쓌,0.9,��
2018/08/10,04:40,0.307,0.192,0.313,0.297,0.280,0.151,0.093,��,0.8,��
2018/08/10,04:50,0.306,0.191,0.310,0.302,0.283,0.150,0.095,�k�k��,0.6,��
2018/08/10,05:00,0.304,0.192,0.311,0.298,0.281,0.150,0.094,�k�k��,0.9,��
2018/08/10,05:10,0.307,0.190,0.312,0.297,0.279,0.151,0.093,�k�k��,1.5,��
2018/08/10,05:20,0.306,0.191,0.311,0.300,0.284,0.151,0.094,�k,1.4,��
2018/08/10,05:30,0.305,0.193,0.310,0.300,0.282,0.150,0.094,�k,2.8,��
2018/08/10,05:40,0.308,0.191,0.314,0.296,0.278,0.150,0.093,�k,3.3,��
2018/08/10,05:50,0.306,0.192,0.311,0.300,0.281,0.151,0.094,�k�k��,4.1,��
2018/08/10,06:00,0.303,0.192,0.311,0.299,0.282,0.150,0.094,�k�k��,3.9,��
2018/08/10,06:10,0.308,0.190,0.314,0.297,0.280,0.150,0.094,�k�k��,4.5,��
2018/08/10,06:20,0.308,0.192,0.312,0.299,0.278,0.152,0.093,�k,3.1,��
2018/08/10,06:30,0.304,0.192,0.309,0.300,0.280,0.150,0.093,�k,2.8,��
2018/08/10,06:40,0.306,0.191,0.314,0.298,0.285,0.150,0.093,�k�k��,1.6,��
2018/08/10,06:50,0.307,0.191,0.313,0.296,0.281,0.150,0.093,�k�k��,1.2,��
2018/08/10,07:00,0.307,0.192,0.310,0.295,0.280,0.150,0.094,�k�k��,1.2,��
2018/08/10,07:10,0.301,0.193,0.308,0.300,0.277,0.149,0.093,-,CALM,��
2018/08/10,07:20,0.305,0.191,0.310,0.300,0.279,0.151,0.093,-,CALM,��
2018/08/10,07:30,0.307,0.191,0.313,0.300,0.280,0.150,0.094,��,0.7,��
2018/08/10,07:40,0.305,0.190,0.313,0.299,0.284,0.149,0.093,��쐼,1.0,��
2018/08/10,07:50,0.304,0.192,0.312,0.299,0.284,0.150,0.095,��,1.7,��
2018/08/10,08:00,0.303,0.192,0.311,0.298,0.280,0.150,0.094,�쓌,1.7,��
2018/08/10,08:10,0.305,0.191,0.309,0.298,0.281,0.150,0.093,��쓌,3.0,��
2018/08/10,08:20,0.305,0.191,0.310,0.297,0.280,0.151,0.093,�쓌,3.0,��
2018/08/10,08:30,0.304,0.191,0.309,0.299,0.281,0.150,0.093,��쓌,3.1,��
2018/08/10,08:40,0.303,0.192,0.309,0.298,0.282,0.150,0.094,��쓌,2.8,��
2018/08/10,08:50,0.306,0.192,0.308,0.298,0.281,0.151,0.093,��쓌,2.6,��
2018/08/10,09:00,0.304,0.191,0.308,0.299,0.281,0.151,0.093,��쓌,2.7,��
2018/08/10,09:10,0.307,0.192,0.309,0.300,0.281,0.151,0.094,��쓌,2.9,��
2018/08/10,09:20,0.306,0.192,0.309,0.299,0.282,0.151,0.094,�쓌,1.8,��
2018/08/10,09:30,0.306,0.193,0.309,0.300,0.281,0.152,0.093,��쓌,1.5,��
2018/08/10,09:40,0.306,0.193,0.310,0.301,0.281,0.151,0.094,�쓌,1.3,��
2018/08/10,09:50,0.307,0.194,0.311,0.299,0.281,0.151,0.094,�쓌,1.9,��
2018/08/10,10:00,0.308,0.193,0.310,0.301,0.282,0.152,0.095,��쓌,2.7,��
2018/08/10,10:10,0.307,0.192,0.310,0.302,0.284,0.152,0.094,��,1.4,��
2018/08/10,10:20,0.307,0.194,0.310,0.301,0.284,0.152,0.095,��쓌,1.6,��
2018/08/10,10:30,0.309,0.194,0.311,0.302,0.283,0.151,0.094,��,2.3,��
2018/08/10,10:40,0.309,0.194,0.313,0.302,0.283,0.153,0.094,-,CALM,��
2018/08/10,10:50,0.309,0.193,0.314,0.301,0.284,0.152,0.095,-,CALM,��
2018/08/10,11:00,0.309,0.194,0.314,0.300,0.283,0.153,0.094,���쓌,1.3,��
2018/08/10,11:10,0.308,0.191,0.315,0.301,0.283,0.152,0.094,�쓌,2.1,��
2018/08/10,11:20,0.308,0.192,0.315,0.300,0.282,0.151,0.094,��,1.7,��
2018/08/10,11:30,0.307,0.191,0.313,0.298,0.283,0.150,0.094,��쓌,2.5,��
2018/08/10,11:40,0.306,0.192,0.312,0.299,0.280,0.150,0.094,��쓌,2.8,��
2018/08/10,11:50,0.306,0.192,0.314,0.299,0.282,0.150,0.094,��쓌,2.5,��
2018/08/10,12:00,0.307,0.192,0.312,0.299,0.281,0.151,0.094,��,2.0,�L
2018/08/10,12:10,0.306,0.192,0.311,0.298,0.281,0.151,0.095,��,2.2,��
2018/08/10,12:20,0.306,0.192,0.311,0.299,0.280,0.151,0.093,��쐼,1.7,��
2018/08/10,12:30,0.306,0.191,0.312,0.298,0.282,0.152,0.094,��쓌,1.9,��
2018/08/10,12:40,0.308,0.193,0.315,0.302,0.284,0.152,0.094,��쓌,3.3,��
2018/08/10,12:50,0.310,0.194,0.314,0.303,0.285,0.151,0.094,��쓌,3.9,��
2018/08/10,13:00,0.308,0.193,0.314,0.304,0.285,0.153,0.095,��,4.5,��
2018/08/10,13:10,0.309,0.193,0.316,0.303,0.285,0.153,0.095,��,4.4,��
2018/08/10,13:20,0.309,0.194,0.314,0.302,0.284,0.152,0.094,��,5.2,��
2018/08/10,13:30,0.311,0.193,0.316,0.303,0.284,0.152,0.095,��,5.2,��
2018/08/10,13:40,0.311,0.194,0.314,0.302,0.284,0.153,0.095,��,5.3,��
2018/08/10,13:50,0.309,0.193,0.315,0.303,0.284,0.153,0.095,��,6.6,��
2018/08/10,14:00,0.310,0.194,0.315,0.302,0.284,0.152,0.094,��,6.3,��
2018/08/10,14:10,0.310,0.193,0.314,0.302,0.283,0.153,0.094,��,7.2,��
2018/08/10,14:20,0.308,0.193,0.314,0.302,0.283,0.152,0.094,��,7.3,��
2018/08/10,14:30,0.309,0.192,0.313,0.301,0.282,0.153,0.094,��,6.1,��
2018/08/10,14:40,0.308,0.192,0.312,0.301,0.282,0.151,0.094,��,6.9,��
2018/08/10,14:50,0.308,0.193,0.313,0.300,0.281,0.152,0.094,��,5.5,��
2018/08/10,15:00,0.308,0.193,0.314,0.301,0.283,0.152,0.094,��,5.4,��
2018/08/10,15:10,0.310,0.193,0.314,0.301,0.285,0.153,0.094,��,5.3,��
2018/08/10,15:20,0.309,0.192,0.313,0.300,0.283,0.153,0.094,��,3.7,��
2018/08/10,15:30,0.310,0.193,0.313,0.300,0.284,0.154,0.092,��,3.9,��
2018/08/10,15:40,0.309,0.193,0.313,0.299,0.283,0.152,0.093,��쓌,2.9,��
2018/08/10,15:50,0.308,0.192,0.312,0.300,0.283,0.152,0.094,��,3.1,��
2018/08/10,16:00,0.308,0.192,0.312,0.300,0.283,0.152,0.094,��,3.6,��
2018/08/10,16:10,0.307,0.192,0.311,0.300,0.282,0.152,0.094,��,2.5,��
2018/08/10,16:20,0.306,0.192,0.313,0.300,0.281,0.152,0.094,��쓌,1.7,��
2018/08/10,16:30,0.307,0.192,0.313,0.301,0.281,0.152,0.093,��,3.6,��
2018/08/10,16:40,0.307,0.192,0.313,0.301,0.281,0.152,0.093,��,3.7,��
2018/08/10,16:50,0.306,0.192,0.314,0.301,0.281,0.152,0.093,��,2.9,��
2018/08/10,17:00,0.307,0.192,0.313,0.301,0.283,0.151,0.094,��쓌,2.3,��
2018/08/10,17:10,0.307,0.192,0.312,0.298,0.282,0.152,0.094,��,3.6,��
2018/08/10,17:20,0.305,0.191,0.312,0.299,0.282,0.150,0.094,��쓌,2.4,��
2018/08/10,17:30,0.305,0.192,0.311,0.299,0.281,0.151,0.094,��,3.1,��
2018/08/10,17:40,0.306,0.190,0.311,0.303,0.282,0.153,0.094,��쓌,1.5,��
2018/08/10,17:50,0.307,0.192,0.317,0.305,0.282,0.152,0.095,-,CALM,��
2018/08/10,18:00,0.310,0.193,0.317,0.304,0.280,0.153,0.094,�k��,1.9,��
2018/08/10,18:10,0.309,0.193,0.313,0.301,0.283,0.153,0.094,�k��,1.3,��
2018/08/10,18:20,0.308,0.192,0.312,0.300,0.285,0.153,0.093,�k,1.3,��
2018/08/10,18:30,0.306,0.191,0.312,0.299,0.284,0.152,0.095,�k,1.9,��
2018/08/10,18:40,0.306,0.192,0.314,0.305,0.284,0.153,0.095,�k�k��,2.0,��
2018/08/10,18:50,0.312,0.193,0.318,0.303,0.282,0.152,0.095,�k��,1.5,��
2018/08/10,19:00,0.310,0.193,0.315,0.302,0.284,0.153,0.093,�k�k��,1.3,��
2018/08/10,19:10,0.309,0.193,0.314,0.300,0.286,0.152,0.093,�k�k��,2.0,��
2018/08/10,19:20,0.306,0.191,0.312,0.300,0.284,0.151,0.094,�k,3.1,��
2018/08/10,19:30,0.306,0.193,0.315,0.304,0.282,0.152,0.095,�k�k��,3.5,�L
2018/08/10,19:40,0.313,0.193,0.318,0.304,0.281,0.153,0.094,�k,2.3,�L
2018/08/10,19:50,0.311,0.193,0.314,0.302,0.286,0.154,0.094,�k,3.4,�L
2018/08/10,20:00,0.310,0.193,0.314,0.300,0.286,0.154,0.094,�k,4.7,�L
2018/08/10,20:10,0.307,0.192,0.314,0.303,0.283,0.153,0.094,�k,2.8,�L
2018/08/10,20:20,0.310,0.195,0.316,0.304,0.283,0.151,0.093,�k,4.8,�L
2018/08/10,20:30,0.312,0.194,0.315,0.302,0.286,0.153,0.094,�k,4.2,�L
2018/08/10,20:40,0.308,0.192,0.312,0.300,0.286,0.154,0.094,�k,5.2,�L
2018/08/10,20:50,0.307,0.193,0.314,0.303,0.285,0.153,0.095,�k,5.4,�L
2018/08/10,21:00,0.310,0.196,0.319,0.307,0.282,0.153,0.095,�k,6.2,�L
2018/08/10,21:10,0.312,0.194,0.317,0.303,0.286,0.154,0.095,�k,6.4,�L
2018/08/10,21:20,0.312,0.193,0.314,0.301,0.287,0.154,0.095,�k,4.8,�L
2018/08/10,21:30,0.307,0.194,0.316,0.303,0.284,0.154,0.095,�k,4.8,�L
2018/08/10,21:40,0.311,0.196,0.317,0.305,0.283,0.153,0.096,�k,4.5,�L
2018/08/10,21:50,0.311,0.193,0.315,0.303,0.287,0.154,0.095,�k,5.7,�L
2018/08/10,22:00,0.309,0.192,0.313,0.301,0.286,0.154,0.094,�k,6.1,�L
2018/08/10,22:10,0.306,0.195,0.317,0.304,0.284,0.154,0.096,�k,4.9,�L
2018/08/10,22:20,0.310,0.193,0.317,0.304,0.283,0.153,0.095,�k,4.8,�L
2018/08/10,22:30,0.311,0.192,0.314,0.302,0.285,0.153,0.094,�k,3.8,�L
2018/08/10,22:40,0.309,0.194,0.314,0.299,0.285,0.154,0.095,�k,6.6,�L
2018/08/10,22:50,0.307,0.196,0.318,0.305,0.283,0.154,0.096,�k,5.7,�L
2018/08/10,23:00,0.312,0.195,0.317,0.305,0.286,0.155,0.096,�k,5.0,�L
2018/08/10,23:10,0.312,0.194,0.314,0.302,0.286,0.155,0.096,�k,5.0,�L
2018/08/10,23:20,0.308,0.194,0.318,0.303,0.284,0.154,0.095,�k,4.5,�L
2018/08/10,23:30,0.309,0.194,0.315,0.304,0.284,0.153,0.095,�k,4.2,�L
2018/08/10,23:40,0.312,0.193,0.314,0.302,0.286,0.153,0.095,�k,4.9,�L
2018/08/10,23:50,0.308,0.195,0.315,0.301,0.284,0.155,0.095,�k,4.2,�L
